Location: Pitton
(51.0667°N, 1.7000°W)
Time: 00:26:05
(UTC+00:00)

Cosmos 1743 - Pass Details

Date: 17 September 2019
Orbit: 511 x 527 km, 82.6° (Epoch: 22 October)

Event Time Altitude Azimuth Distance (km) Brightness Sun altitude
Rises 18:57:54 0° 201° (SSW) 2,632 6.4 -7.1°
Reaches altitude 10° 19:00:03 10° 207° (SSW) 1,752 5.6 -7.5°
Maximum altitude 19:03:49 52° 284° (WNW) 662 3.8 -8.1°
Drops below altitude 10° 19:07:38 10° 2° (N) 1,776 5.6 -8.6°
Sets 19:09:50 0° 7° (N) 2,673 6.4 -9.0°
